Location: Hohe Wand Kleine Kanzel
(47.8330°N, 16.0170°E)
Time: 04:06:47
(UTC+02:00)

N. Korean satellite - Visible Passes

Search period start: 03 October 2022 00:00
Search period end: 13 October 2022 00:00
Orbit: 426 x 468 km, 97.3° (Epoch: 02 October)

Date Brightness Start Highest point End Pass type
(mag) Time Alt. Az. Time Alt. Az. Time Alt. Az.
03 Oct 8.9 05:39:39 10° NE 05:42:25 25° E 05:45:10 10° SSE visible
05 Oct 7.6 06:00:11 10° NNE 06:03:22 45° E 06:06:31 10° S visible
06 Oct 9.5 05:25:01 10° NE 05:27:12 17° E 05:29:23 10° SE visible
07 Oct 6.3 06:20:47 10° NNE 06:24:04 89° E 06:27:20 10° SSW visible
08 Oct 8.6 05:45:01 10° NE 05:47:56 29° E 05:50:49 10° SSE visible
09 Oct 9.9 05:10:35 10° ENE 05:11:34 11° E 05:12:33 10° ESE visible
10 Oct 7.2 06:05:12 10° NNE 06:08:25 53° E 06:11:38 10° S visible
11 Oct 9.4 05:29:39 10° NE 05:32:05 19° E 05:34:30 10° SE visible
12 Oct 6.2 06:25:24 10° N 06:28:41 80° WNW 06:31:59 10° SSW visible
